Regional Weather Roundup
Issued by NWS Green Bay, WI

Home | Current Version | Previous Version | Text Only | Print | Product List | Glossary On
Versions: 1 2 3 4 5 6 7 8 9 10 11 12 13 14 15 16 17 18 19 20 21 22 23 24 25 26 27 28 29 30 31 32 33 34 35 36 37 38 39 40 41 42 43 44 45 46 47 48 49 50
000
ASUS43 KGRB 250011
RWRGRB

NORTH-CENTRAL AND NORTHEAST WISCONSIN REGIONAL WEATHER ROUNDUP
NATIONAL WEATHER SERVICE GREEN BAY WI
700 PM CDT SUN JUL 24 2016

WIZ005-009-010>012-018-019-250100-
NORTH CENTRAL WISCONSIN

CITY           SKY/WX    TMP DP  RH WIND       PRES   REMARKS
IRONWOOD       SUNNY     77  61  57 W9G22     29.83R
MANITOWISH WTR MOSUNNY   76  62  62 W7        29.88R
ARBOR VITAE    MOSUNNY   79  65  60 W6        29.88S
EAGLE RIVER    MOSUNNY   78  60  53 W9G18     29.86R
LAND O LAKES   MOSUNNY   79  60  51 W10G17    29.87R
RHINELANDER    SUNNY     78  62  57 W15G24    29.88R
PHILLIPS       CLOUDY    77  64  62 W7        29.89S
ANTIGO         MOSUNNY   78  65  62 W13G21    29.88R
TOMAHAWK       MOSUNNY   77  63  62 W10       29.89R
MERRILL        SUNNY     80  65  61 W9        29.88R
$$

WIZ013-073-250100-
NORTHEAST WISCONSIN

CITY           SKY/WX    TMP DP  RH WIND       PRES   REMARKS
IRON MOUNTAIN  SUNNY     82  60  47 W10       29.80R
MARINETTE      NOT AVBL
OCONTO         SUNNY     84  75  73 W7        29.79R HX  92
$$

WIZ017-030-035>037-045-250100-
CENTRAL WISCONSIN

CITY           SKY/WX    TMP DP  RH WIND       PRES   REMARKS
MEDFORD        SUNNY     77  62  59 W15G23    29.90S
WAUSAU         SUNNY     81  63  54 W14G24    29.86R
MOSINEE        SUNNY     81  64  57 W16G23    29.89R
MARSHFIELD     CLOUDY    80  64  58 W8        29.89S
WISC RAPIDS    MOSUNNY   83  62  49 NW10G20   29.89R
STEVENS POINT  MOSUNNY   81  64  57 W9G17     29.88S
WAUPACA        MOSUNNY   84  65  52 W7        29.85S
SHAWANO        SUNNY     84  65  53 W7        29.84R
CLINTONVILLE   SUNNY     81  63  54 W14G20    29.84R
WAUTOMA        MOSUNNY   84  68  58 W8        29.87R
$$

WIZ038-039-048-051-250100-
FOX VALLEY

CITY           SKY/WX    TMP DP  RH WIND       PRES   REMARKS
NWS GREEN BAY  SUNNY     83  73  72 W10       29.81R
APPLETON       NOT AVBL
OSHKOSH        SUNNY     84  70  62 W10       29.83R
FOND DU LAC    SUNNY     86  73  65 W10       29.84R HX  93
$$

WIZ022-050-052-250100-
EAST CENTRAL WISCONSIN

CITY           SKY/WX    TMP DP  RH WIND       PRES   REMARKS
EPHRAIM        FAIR      81  76  86 SW7       29.78R
WASHINGTON ISL NOT AVBL
STURGEON BAY   SUNNY     84  75  74 W8        29.80R HX  92
MANITOWOC      SUNNY     86  73  65 MISG      29.81R HX  93
SHEBOYGAN      MOSUNNY   87  75  67 W8        29.81R HX  96
$$

LMZ563-521-522-541>543-250100-
LAKESHORE

STATION/POSITION TIME  TEMP    WIND        PRES    VSBY  WAVE
                       AIR SEA DIR/SP/G                  HT/PER
                 (UTC) (F)     (DEG/KT/KT) (MB)    (MI)  (FT/S)
SHEBOYGAN LKSHOR 0000   87     280/  7/  9 1009.1R
KEWAUNEE LKSHORE 2300   71                   N/A
NORTHPORT PIER   2300   76     150/  7/ 11 1007.8S
N MID LAKE BUOY  2350   70 68  210/ 12/ 14 1007.4R         4/ 6
S GREEN BAY BUOY 2300   79 76  260/  6/  8   N/A
CHAMBERS ISLAND  2300   79     170/  6/ 11 1007.8S
MENOMINEE LKSHOR 2300   85                   N/A
$$




USA.gov is the U.S. government's official web portal to all federal, state and local government web resources and services.